CW0728 Weather Reports


Display with metric or nautical units.
time (UTC)temp
F
wind
direction
speed
MPH
gust
MPH
rain 1hr
in
rain 24hr
in
rain mn
in
humidity
%
barometer
mb
20260509110002 37 114 0.0 0.0 0.00 0.00 0.00 88 1013.7
20260509104540 36 114 0.0 0.0 0.00 0.00 0.00 89 1013.7
20260509103016 35 114 0.0 0.0 0.00 0.00 0.00 88 1013.4
20260509101559 34 114 0.0 0.0 0.00 0.00 0.00 87 1013.1
20260509100033 34 114 0.0 0.0 0.00 0.00 0.00 86 1013.0
20260509094520 34 114 0.0 0.0 0.00 0.00 0.00 86 1012.8
20260509093100 35 114 0.0 0.0 0.00 0.00 0.00 85 1012.6
20260509091537 35 114 0.0 0.0 0.00 0.00 0.00 84 1012.2
20260509090012 36 114 0.0 0.0 0.00 0.00 0.00 84 1012.3
20260509084551 36 114 0.0 0.0 0.00 0.00 0.00 83 1012.3
20260509083024 37 114 0.0 0.0 0.00 0.00 0.00 82 1012.4
20260509081600 37 114 0.0 0.0 0.00 0.00 0.00 80 1012.4
20260509080045 38 114 0.0 0.0 0.00 0.00 0.00 79 1012.5
20260509074534 39 114 0.0 0.0 0.00 0.00 0.00 79 1012.4
20260509073010 39 114 0.0 0.0 0.00 0.00 0.00 79 1012.3
20260509071601 40 114 0.0 0.0 0.00 0.00 0.00 79 1012.4
20260509070026 40 114 0.0 0.0 0.00 0.00 0.00 78 1012.2
20260509064502 40 114 0.0 0.0 0.00 0.00 0.00 77 1012.2
20260509063039 40 114 0.0 0.0 0.00 0.00 0.00 77 1012.1
20260509061512 41 114 0.0 0.0 0.00 0.00 0.00 75 1012.0
20260509060051 41 114 0.0 0.0 0.00 0.00 0.00 75 1012.0
20260509054551 42 114 0.0 0.0 0.00 0.00 0.00 74 1011.9
20260509053026 42 114 0.0 0.0 0.00 0.00 0.00 73 1011.8
20260509051517 42 114 0.0 2.0 0.00 0.00 0.00 74 1011.9
20260509050057 42 22 0.0 0.0 0.00 0.00 0.00 71 1011.8
20260509044532 42 22 0.0 0.0 0.00 0.00 0.00 70 1011.8
20260509043009 42 22 0.0 0.0 0.00 0.00 0.00 70 1011.9
20260509041545 42 22 0.0 0.0 0.00 0.00 0.00 71 1011.7
20260509040019 42 22 0.0 0.0 0.00 0.00 0.00 69 1011.4
20260509034556 42 22 0.0 0.0 0.00 0.00 0.00 69 1011.3
20260509033041 42 22 0.0 0.0 0.00 0.00 0.00 69 1011.2
20260509031528 42 22 0.0 0.0 0.00 0.00 0.00 69 1011.0
20260509030054 42 22 0.0 0.0 0.00 0.00 0.00 69 1010.9
20260509024535 41 22 0.0 0.0 0.00 0.00 0.00 69 1010.8
20260509023007 41 22 0.0 0.0 0.00 0.00 0.00 67 1010.7
20260509021541 41 22 0.0 0.0 0.00 0.00 0.00 66 1010.6
20260509020024 41 22 0.0 0.0 0.00 0.00 0.00 64 1010.3
20260509014602 42 22 0.0 0.0 0.00 0.00 0.00 62 1010.1
20260509013040 43 22 0.0 0.0 0.00 0.00 0.00 60 1009.9
20260509011512 44 22 0.0 0.0 0.00 0.00 0.00 58 1009.7
20260509010050 45 22 0.0 0.0 0.00 0.00 0.00 56 1009.4
20260509004530 46 22 0.0 0.0 0.00 0.00 0.00 54 1009.1
20260509003010 47 22 0.0 0.0 0.00 0.00 0.00 51 1008.8
20260509001547 49 22 0.0 0.0 0.00 0.00 0.00 48 1008.6
20260509000036 50 22 0.0 0.0 0.00 0.00 0.00 44 1008.5
20260508234512 51 22 0.0 0.0 0.00 0.00 0.00 41 1008.3
20260508233053 52 9 0.0 1.0 0.00 0.00 0.00 39 1008.1
20260508231528 53 336 0.0 3.0 0.00 0.00 0.00 37 1008.1
20260508230005 54 319 0.0 3.0 0.00 0.00 0.00 36 1007.9
20260508224545 54 330 0.0 8.0 0.00 0.00 0.00 36 1007.7
20260508223024 54 111 1.0 9.0 0.00 0.00 0.00 36 1007.6
20260508221600 55 292 0.0 3.0 0.00 0.00 0.00 37 1007.6
20260508220038 56 310 3.0 10.0 0.00 0.00 0.00 35 1007.4
20260508214511 56 316 0.0 6.0 0.00 0.00 0.00 37 1007.3
20260508213100 56 283 2.0 8.0 0.00 0.00 0.00 36 1007.4
20260508211532 58 321 3.0 13.0 0.00 0.00 0.00 33 1007.1
20260508210005 57 233 3.0 15.0 0.00 0.00 0.00 34 1006.9
20260508204544 58 300 2.0 12.0 0.00 0.00 0.00 34 1006.8
20260508203034 56 222 4.0 11.0 0.00 0.00 0.00 37 1006.7
20260508201519 55 109 2.0 14.0 0.00 0.00 0.00 36 1006.7
20260508200124 55 302 5.0 12.0 0.00 0.00 0.00 36 1006.6
20260508194534 56 263 2.0 9.0 0.00 0.00 0.00 36 1006.3
20260508193012 56 317 3.0 9.0 0.00 0.00 0.00 35 1006.1
20260508191547 56 18 4.0 12.0 0.00 0.00 0.00 34 1005.9
20260508190032 56 279 3.0 10.0 0.00 0.00 0.00 32 1006.0
20260508184513 57 267 1.0 8.0 0.00 0.00 0.00 34 1005.7
20260508183053 57 293 1.0 12.0 0.00 0.00 0.00 31 1005.8
20260508181604 58 311 1.0 10.0 0.00 0.00 0.00 31 1005.7
20260508180016 58 318 4.0 12.0 0.00 0.00 0.00 31 1005.8
20260508174606 57 323 0.0 12.0 0.00 0.00 0.00 32 1005.8
20260508173030 57 327 0.0 9.0 0.00 0.00 0.00 33 1005.7
20260508171506 56 216 2.0 9.0 0.00 0.00 0.00 36 1005.8
20260508170048 57 348 1.0 10.0 0.00 0.00 0.00 34 1005.8
20260508164534 57 313 2.0 8.0 0.00 0.00 0.00 34 1005.7
20260508163007 57 332 3.0 13.0 0.00 0.00 0.00 34 1006.0
20260508161547 57 275 2.0 8.0 0.00 0.00 0.00 34 1006.0
20260508160036 58 331 2.0 9.0 0.00 0.00 0.00 33 1006.0
20260508154503 58 304 2.0 8.0 0.00 0.00 0.00 34 1006.1
20260508153043 57 327 1.0 9.0 0.00 0.00 0.00 35 1006.1
20260508151521 56 294 0.0 7.0 0.00 0.00 0.00 36 1006.2
20260508150101 57 5 3.0 11.0 0.00 0.00 0.00 36 1006.3
20260508144536 56 309 4.0 9.0 0.00 0.00 0.00 36 1006.3
20260508143011 56 192 1.0 9.0 0.00 0.00 0.00 38 1006.4
20260508141558 56 258 1.0 6.0 0.00 0.00 0.00 37 1006.5
20260508140032 55 339 3.0 10.0 0.00 0.00 0.00 39 1006.7
20260508134508 55 310 1.0 9.0 0.00 0.00 0.00 41 1006.9
20260508133050 53 277 3.0 10.0 0.00 0.00 0.00 42 1006.9
20260508131520 52 269 2.0 7.0 0.00 0.00 0.00 46 1006.9
20260508130057 52 298 1.0 5.0 0.00 0.00 0.00 47 1007.1
20260508124531 50 327 0.0 5.0 0.00 0.00 0.00 50 1007.0
20260508123017 49 282 0.0 6.0 0.00 0.00 0.00 52 1007.1
20260508121603 48 293 1.0 5.0 0.00 0.00 0.00 52 1007.2
20260508120035 46 326 0.0 4.0 0.00 0.00 0.00 56 1007.2
20260508114501 45 305 0.0 4.0 0.00 0.00 0.00 59 1007.2
20260508113041 44 250 0.0 1.0 0.00 0.00 0.00 61 1007.2
20260508111523 42 333 0.0 0.0 0.00 0.00 0.00 64 1007.1